Vertical_Velocity
-0 -2 0 -5 -2 6 4 -2 -1 -0 -6 7 12 -5 9 2 1 -2 -2 -3 6 -4 -4 2 -0 -0 -1 2 2 1 1 -12 0 -7 -3 -5 -3 0 -7 -9 -2 -6 -8 -30
-0 -4 4 -6 9 -3 -6 -1 10 2 5 -7 -7 13 -2 -1 0 -1 4 3 -0 -5 4 0 -1 3 -4 1 -0 -3 1 -2 -7 3 10 15 -2 13 3 3 -3 -5 -14 16
-1 -5 -5 1 -4 -0 3 8 2 2 -1 3 16 -0 0 -1 1 4 1 0 -3 2 0 -3 3 -2 1 1 -3 -2 -2 6 6 4 11 10 11 8 7 -4 -17 15 -10 18
-1 -1 -6 -9 4 -8 5 3 3 9 -13 -8 -3 -3 0 2 0 2 1 1 1 -0 2 -1 -0 2 -3 2 1 -0 -2 5 2 18 15 8 10 6 -2 -4 9 -15 27 -15
0 1 -4 14 4 -1 -8 -0 -12 7 13 3 -3 -3 -2 2 1 1 1 -1 -0 1 -1 -1 1 -2 -1 0 0 0 2 -1 6 2 3 -1 -6 -2 -2 -2 -8 3 -4 7
-1 -6 0 7 -17 -5 1 1 9 -2 0 -3 -3 7 3 0 2 1 1 -2 -0 -0 3 0 -4 -2 -1 3 0 -2 2 0 3 3 5 -1 -3 -4 -5 -7 -10 -6 5 4
-2 -2 -1 -4 -5 -1 -5 -1 4 0 3 5 1 3 4 5 -0 -2 -2 -4 -1 1 2 0 -1 -1 2 2 3 0 2 2 -1 -0 1 17 7 -1 2 -1 4 1 -5 -4
-7 -6 -4 -3 1 8 -1 -2 3 -3 2 3 -7 13 3 -0 -1 -3 -1 -3 0 2 -1 1 -2 -5 3 -2 1 0 2 4 -3 2 -4 2 6 1 -7 -4 -3 -5 -1 -1
-0 -6 -4 3 -2 -0 4 3 5 -0 4 0 -8 -3 1 -3 -2 -1 -0 -2 0 -1 0 -1 1 -2 -1 -1 -2 2 -3 2 0 -0 1 0 4 -2 10 -1 -2 3 -0 -2
-7 -4 2 -3 -4 2 4 7 1 6 -1 -3 -1 2 3 -2 -1 -2 -2 4 -0 1 3 1 -2 -1 -1 -2 0 -1 -2 -3 -2 1 0 -4 1 -1 2 2 -6 -5 -0 -0
-2 0 0 2 -5 -3 2 -6 6 -1 -1 0 -0 2 2 -3 -1 -2 2 -1 -1 -1 -2 -0 5 -0 0 2 -2 -1 1 0 -6 -3 -1 2 -2 -3 -2 1 3 4 4 4
4 -4 5 5 -1 -5 -1 -2 -2 3 4 3 -0 -3 -0 -1 -0 -0 0 1 1 2 -0 0 1 0 1 -1 -1 -1 0 0 1 -3 -4 -1 0 -0 -1 -1 -1 -4 -3 -0
-3 -1 1 -3 -2 -3 -1 -3 -5 -2 -1 -2 -1 -1 3 0 -1 -0 -0 -3 4 1 4 -4 0 2 1 -1 -1 1 -1 -0 -2 1 -0 -1 -2 -2 -3 -5 -1 1 0 -2
-1 -3 2 -3 -2 -2 1 -4 -2 -0 2 1 2 0 2 -1 -1 -2 0 0 5 6 2 2 -1 -0 -0 0 2 2 2 1 -1 -1 1 -2 -1 -1 -1 -2 -4 -1 -2 -2
-2 -1 -1 -2 5 -0 2 -1 1 -2 -5 -2 -3 0 -1 -0 -1 -1 1 -1 -0 -1 -1 1 -1 -3 -1 1 2 4 -0 -1 -1 0 -0 1 1 -0 2 0 -2 -2 -1 -1
-2 2 -1 -0 3 0 -4 -4 -10 -6 2 -3 -5 1 -0 -0 -2 -1 -0 3 -1 -0 0 0 1 -0 -6 -6 4 1 -1 2 3 1 2 2 1 3 2 2 0 0 0 -0
-1 2 1 0 6 -0 -4 -6 9 3 -2 -1 -2 -2 -1 1 -2 -1 -1 1 1 -2 -1 -2 -1 3 -3 -1 3 -3 -6 1 -1 -0 -1 -0 0 0 1 2 2 1 1 2
2 2 8 1 9 4 -4 -0 -1 2 1 -1 -2 -1 1 0 -2 -1 0 0 1 1 2 1 -1 0 -1 -0 -5 -2 -0 0 3 -0 0 -1 1 2 3 1 1 2 1 1
1 1 5 7 11 2 1 8 0 -2 -6 -2 5 -0 -1 -3 -2 -2 -2 1 1 -1 -0 -1 -1 0 2 -2 1 -1 1 1 0 -0 1 -0 2 2 1 -1 -1 -1 -1 5
-3 -1 7 13 1 11 5 7 0 -2 -3 -0 -0 1 -1 -5 -1 -3 -4 1 2 1 0 -2 -0 3 -1 -1 1 1 1 4 3 2 1 2 1 -2 -1 -0 2 2 3 2
-3 -2 1 15 11 5 1 -2 -7 -7 -4 2 5 3 1 -1 -1 -2 -4 -1 -0 0 2 -0 2 0 -1 2 1 1 0 1 3 -0 4 4 3 2 2 1 2 3 3 2
-3 -10 5 12 11 12 2 -9 -2 3 1 1 2 1 -1 -2 -2 -3 -3 -2 -1 1 -0 1 2 -2 0 1 1 2 2 2 1 1 1 2 2 2 2 3 2 1 0 -1
-1 -5 2 1 14 14 5 -12 -3 -7 9 22 25 12 2 -2 1 -1 -1 -5 -1 -2 1 0 -1 1 -1 1 0 -1 -0 2 2 1 0 0 0 1 -0 -0 -0 -0 0 -0
-3 -5 -2 10 8 1 -8 -7 1 4 4 -1 0 -1 -1 -3 -2 -2 -1 -4 -3 -4 1 -2 1 1 4 0 1 1 -0 1 2 2 1 1 1 0 -0 -0 0 -1 -1 -0
-2 -5 -3 4 4 -3 -1 -2 1 4 7 -2 1 1 1 -0 -6 -3 -4 -2 -4 3 -2 -2 -0 -3 -0 1 1 -0 -0 -0 -1 -0 0 -1 -1 -0 0 2 1 0 0 0
-2 -2 -4 -3 -5 -2 -2 -1 0 1 4 -0 -2 -2 -1 -0 -5 0 0 -2 6 2 -3 -3 -2 -3 -2 -2 -0 1 1 0 1 1 1 0 0 0 1 1 -0 1 0 0
-1 -3 -3 -2 -0 -3 -3 -3 1 0 -4 -2 -7 -7 0 -6 -7 -1 7 15 13 4 -6 -4 1 1 1 1 -2 -2 0 1 1 1 0 -0 1 2 1 1 1 1 2 2
Height
5451 5452 5452 5455 5457 5456 5458 5471 5482 5493 5504 5513 5524 5536 5545 5552 5559 5569 5577 5582 5587 5592 5595 5596 5596 5597 5591 5588 5585 5581 5578 5572 5567 5563 5559 5557 5555 5554 5554 5553 5557 5555 5556 5553
5448 5450 5452 5455 5457 5461 5465 5473 5486 5497 5507 5517 5527 5536 5543 5549 5557 5565 5572 5578 5583 5588 5589 5591 5591 5588 5586 5584 5581 5577 5573 5565 5560 5557 5556 5551 5547 5548 5548 5548 5547 5546 5550 5554
5448 5448 5454 5459 5460 5464 5473 5482 5487 5495 5507 5518 5528 5534 5540 5547 5555 5562 5568 5574 5580 5583 5585 5586 5586 5583 5583 5581 5579 5574 5567 5561 5557 5553 5550 5547 5545 5545 5543 5543 5540 5547 5546 5554
5453 5454 5458 5465 5467 5470 5479 5486 5494 5505 5511 5520 5528 5532 5538 5546 5554 5559 5565 5572 5577 5580 5582 5581 5580 5580 5581 5579 5574 5570 5565 5560 5555 5551 5548 5545 5543 5544 5542 5540 5544 5542 5550 5549
5462 5464 5467 5469 5471 5478 5486 5492 5500 5507 5516 5522 5527 5531 5538 5546 5552 5557 5563 5569 5573 5576 5577 5576 5578 5579 5579 5578 5573 5569 5563 5559 5557 5550 5547 5545 5544 5543 5544 5545 5546 5545 5546 5549
5473 5473 5474 5477 5483 5488 5491 5496 5504 5510 5518 5522 5529 5536 5541 5547 5551 5557 5561 5567 5570 5572 5572 5573 5576 5579 5578 5576 5574 5570 5565 5560 5558 5556 5552 5550 5549 5547 5547 5548 5548 5549 5553 5557
5478 5480 5482 5484 5489 5493 5497 5502 5510 5514 5519 5525 5530 5535 5541 5547 5551 5555 5559 5565 5567 5568 5569 5572 5574 5576 5577 5576 5575 5572 5568 5566 5561 5560 5557 5556 5553 5550 5550 5551 5552 5555 5558 5563
5485 5487 5490 5491 5493 5497 5502 5506 5510 5516 5522 5527 5531 5536 5540 5545 5550 5554 5558 5561 5563 5563 5567 5569 5573 5575 5577 5576 5576 5575 5572 5569 5567 5566 5564 5563 5559 5556 5555 5556 5560 5561 5565 5571
5489 5492 5494 5496 5498 5501 5505 5509 5513 5517 5521 5527 5531 5535 5540 5544 5549 5553 5556 5558 5559 5561 5564 5567 5571 5573 5574 5576 5577 5576 5576 5573 5572 5571 5571 5569 5567 5566 5569 5568 5570 5576 5578 5580
5488 5490 5493 5496 5498 5502 5506 5509 5512 5517 5521 5525 5530 5536 5540 5544 5548 5552 5554 5555 5557 5558 5561 5563 5568 5571 5573 5574 5575 5576 5576 5575 5575 5575 5575 5576 5575 5575 5577 5580 5582 5581 5584 5587
5480 5484 5490 5495 5498 5501 5504 5508 5512 5517 5521 5525 5530 5534 5538 5542 5546 5549 5551 5554 5555 5557 5558 5560 5563 5566 5570 5572 5573 5575 5576 5576 5576 5576 5576 5579 5579 5580 5581 5582 5583 5584 5586 5589
5469 5475 5483 5491 5495 5499 5503 5507 5511 5516 5521 5526 5529 5532 5536 5539 5544 5547 5548 5550 5551 5554 5556 5557 5558 5562 5566 5568 5571 5573 5574 5574 5575 5577 5578 5577 5579 5581 5582 5584 5585 5585 5587 5589
5461 5467 5475 5484 5491 5496 5501 5506 5512 5516 5520 5524 5527 5531 5534 5537 5541 5544 5547 5548 5549 5549 5552 5554 5555 5558 5562 5564 5567 5570 5571 5572 5573 5575 5576 5577 5578 5579 5581 5582 5583 5585 5587 5588
5454 5459 5469 5478 5486 5492 5497 5504 5510 5514 5519 5522 5526 5529 5532 5535 5538 5542 5544 5545 5545 5547 5548 5550 5553 5556 5559 5562 5564 5567 5569 5570 5571 5573 5575 5576 5576 5578 5579 5580 5582 5583 5586 5587
5448 5453 5461 5472 5481 5487 5494 5501 5507 5511 5517 5519 5522 5527 5530 5533 5536 5539 5541 5542 5543 5544 5545 5548 5551 5554 5556 5558 5562 5565 5566 5567 5569 5570 5573 5574 5576 5577 5578 5580 5581 5582 5583 5584
5439 5442 5452 5465 5475 5483 5488 5496 5502 5509 5513 5516 5520 5525 5528 5531 5534 5536 5538 5539 5540 5541 5542 5545 5549 5551 5554 5555 5560 5563 5563 5563 5565 5568 5570 5573 5575 5576 5577 5578 5579 5580 5581 5582
5427 5431 5441 5456 5469 5477 5485 5494 5502 5505 5509 5513 5517 5521 5526 5530 5532 5534 5536 5536 5537 5538 5539 5542 5545 5550 5551 5554 5557 5557 5559 5561 5563 5565 5569 5571 5573 5574 5575 5577 5578 5579 5580 5580
5415 5418 5429 5446 5462 5473 5481 5490 5497 5502 5506 5510 5514 5520 5525 5528 5530 5532 5533 5534 5535 5536 5537 5539 5543 5546 5548 5550 5551 5553 5556 5559 5561 5562 5565 5567 5570 5572 5573 5574 5575 5577 5578 5579
5407 5409 5419 5437 5454 5467 5477 5485 5491 5498 5504 5506 5512 5517 5521 5524 5527 5529 5531 5532 5533 5534 5536 5538 5541 5543 5545 5547 5549 5550 5552 5554 5556 5558 5561 5563 5565 5565 5566 5568 5571 5573 5575 5576
5404 5406 5416 5430 5448 5465 5474 5482 5488 5495 5498 5503 5509 5513 5518 5521 5524 5526 5529 5529 5530 5532 5534 5536 5539 5542 5543 5545 5547 5549 5551 5553 5553 5554 5557 5560 5562 5563 5564 5566 5568 5570 5572 5574
5405 5407 5418 5436 5450 5462 5471 5477 5485 5491 5497 5503 5506 5509 5513 5517 5521 5524 5527 5527 5529 5530 5532 5534 5537 5539 5542 5544 5546 5548 5550 5551 5552 5553 5555 5557 5560 5561 5562 5564 5566 5568 5570 5571
5414 5417 5427 5439 5454 5462 5468 5474 5483 5489 5495 5501 5504 5506 5509 5513 5516 5520 5524 5525 5527 5528 5530 5532 5533 5537 5539 5541 5544 5546 5547 5549 5551 5552 5554 5556 5558 5560 5561 5563 5564 5566 5568 5569
5425 5429 5437 5445 5455 5459 5465 5472 5480 5486 5493 5499 5500 5501 5504 5508 5513 5516 5520 5522 5525 5526 5528 5529 5529 5533 5536 5538 5540 5542 5544 5547 5548 5550 5552 5554 5556 5558 5560 5561 5562 5563 5564 5564
5435 5438 5443 5449 5454 5455 5462 5469 5477 5484 5490 5493 5496 5498 5501 5503 5507 5510 5514 5518 5521 5523 5525 5525 5526 5529 5533 5535 5537 5539 5540 5543 5545 5547 5549 5551 5553 5554 5555 5557 5557 5557 5557 5557
5441 5443 5446 5448 5451 5456 5464 5470 5475 5482 5487 5490 5492 5495 5498 5500 5502 5505 5509 5513 5515 5520 5521 5522 5522 5524 5527 5530 5531 5534 5536 5538 5540 5542 5544 5545 5547 5549 5550 5550 5550 5550 5551 5551
5444 5445 5449 5451 5454 5459 5463 5467 5471 5476 5482 5485 5488 5490 5493 5495 5497 5501 5504 5508 5513 5516 5516 5516 5518 5520 5522 5524 5526 5528 5530 5533 5535 5536 5538 5539 5540 5541 5542 5543 5544 5544 5544 5544
5446 5444 5445 5449 5453 5456 5460 5464 5467 5470 5475 5479 5481 5485 5488 5490 5492 5496 5499 5503 5508 5507 5508 5510 5512 5515 5518 5519 5521 5523 5525 5526 5528 5530 5531 5533 5534 5535 5536 5537 5537 5537 5537 5537